Theta_e
298 297 297 296 296 296 297 297 298 298 299 303 309 313 317 314 308 305 304 306 308 310 313 313 314 317 314 314 313 318 321 321 321 319 317 313 315 314 313 315 314 315 315
296 295 294 293 293 293 293 294 295 295 295 297 305 317 310 306 302 300 299 300 302 303 305 306 307 308 310 309 309 310 312 316 317 314 311 305 306 308 310 310 311 309 310
295 293 292 291 291 290 290 292 292 292 292 294 309 312 308 306 301 299 296 296 298 299 300 300 301 302 303 303 303 304 304 304 308 307 306 301 299 303 306 306 305 301 301
293 292 291 290 289 289 289 290 290 290 291 292 301 304 303 296 297 296 294 294 294 294 295 295 295 295 296 296 298 299 298 301 299 302 304 304 306 301 298 302 302 298 299
292 291 290 290 288 288 287 288 288 287 288 289 292 295 296 297 296 294 292 291 291 290 291 291 292 293 294 294 294 294 294 295 296 295 295 296 297 299 297 295 294 292 295
290 290 289 289 287 287 287 287 286 286 286 287 287 288 290 290 289 289 288 287 287 287 288 289 290 291 292 292 292 292 292 291 292 292 292 291 290 290 289 288 288 288 291
288 288 287 286 286 285 286 287 286 284 284 285 285 285 285 286 285 285 285 284 284 284 285 287 287 288 289 289 290 290 290 289 288 289 289 290 289 290 290 290 286 285 288
288 288 287 286 285 285 285 285 284 283 283 283 283 283 284 283 283 283 283 283 283 284 285 286 286 287 288 288 288 288 289 288 287 287 287 287 288 289 286 286 285 282 284
288 288 287 286 285 284 284 283 283 283 282 282 282 282 282 282 282 282 282 282 283 286 285 285 284 284 285 286 286 286 286 286 286 285 285 286 286 285 285 285 285 284 280
289 288 287 286 285 283 283 283 283 282 282 281 281 281 281 281 281 282 281 282 283 284 283 283 283 283 283 283 284 284 285 284 284 284 283 283 284 283 283 283 282 282 281
289 289 287 286 284 283 282 282 281 281 281 281 281 280 280 280 281 281 281 281 282 283 282 282 282 282 282 282 282 283 283 282 282 282 281 281 281 279 279 280 280 279 279
291 290 288 286 283 283 282 281 281 280 281 280 280 279 280 280 279 279 280 281 281 282 282 282 282 281 281 281 281 281 280 280 280 280 278 278 280 278 279 279 278 278 279
291 289 287 285 284 282 281 280 280 280 280 279 279 279 279 278 278 279 280 280 280 281 281 282 281 281 280 280 280 279 280 280 279 278 277 277 278 278 278 278 277 278 277
291 290 288 286 284 282 281 279 279 279 279 278 278 278 278 278 278 279 279 279 279 279 280 280 281 281 279 280 280 279 279 279 279 279 278 277 277 278 278 278 277 277 276
289 289 288 287 285 282 281 279 278 278 278 277 277 277 278 277 278 278 278 278 278 278 279 279 280 282 281 280 279 278 278 278 277 277 277 277 277 279 280 278 276 275 275
287 288 287 288 286 283 282 280 278 278 278 276 276 276 277 277 277 278 277 277 277 278 278 279 279 280 281 281 280 279 277 277 276 275 276 276 276 277 278 278 277 276 273
288 287 287 286 286 285 281 278 277 277 276 276 276 276 277 277 277 277 277 277 277 277 277 277 278 279 280 281 279 279 276 276 275 274 274 274 274 275 274 274 274 273 274
286 286 284 282 282 279 277 276 276 276 276 275 276 276 276 276 277 278 278 277 277 276 276 276 277 278 278 280 278 277 275 274 274 273 273 273 273 274 273 271 270 269 269
285 282 279 277 276 275 275 275 275 275 275 274 274 275 276 276 276 277 276 277 276 276 276 276 276 276 277 279 277 276 274 272 273 272 272 273 272 274 274 269 267 265 266
280 278 274 273 272 272 274 274 273 273 273 274 275 275 276 276 276 276 276 277 277 276 276 275 274 274 275 277 277 275 274 270 270 270 270 273 273 272 273 268 266 262 263
276 270 269 270 269 270 272 271 271 271 272 274 274 274 275 276 276 276 276 276 276 274 273 272 272 272 272 275 276 275 273 269 267 267 267 268 272 270 271 269 267 265 262
273 272 270 269 268 272 273 271 271 272 272 272 274 274 274 275 275 275 275 274 274 272 270 269 269 269 271 274 274 274 274 270 265 265 267 267 269 268 268 267 267 264 260
272 270 269 268 268 269 271 270 269 270 271 273 271 272 273 274 275 274 273 272 272 270 269 268 267 267 269 270 272 272 272 270 265 265 267 267 266 265 260 265 264 258 256
271 269 268 267 267 267 270 268 270 271 270 270 271 271 271 272 272 273 272 271 269 267 267 266 265 266 267 268 269 268 266 267 261 260 259 263 262 262 259 256 256 255 254
268 268 268 267 266 265 266 268 270 270 270 270 270 270 271 271 269 270 269 268 268 268 265 263 264 259 258 263 269 265 261 261 259 249 248 249 251 252 252 251 251 253 252
267 267 266 265 265 265 265 268 270 271 270 269 269 270 269 268 268 266 265 272 271 273 272 270 264 261 269 271 271 271 268 268 264 246 243 245 245 247 247 246 247 248 249
Wind_Speed
4 5 5 5 4 7 7 6 6 6 4 3 2 3 3 4 6 6 8 8 6 9 7 4 5 5 5 3 3 2 2 2 2 2 3 3 5 4 2 2 3 5 5
6 5 5 5 6 5 6 6 6 7 5 2 2 2 3 5 5 4 8 7 11 8 6 5 4 5 2 4 4 4 3 2 3 2 2 4 5 4 3 1 4 6 4
11 6 5 5 5 6 6 6 6 5 4 5 1 6 5 3 3 4 5 7 9 8 7 7 5 5 4 3 4 4 4 2 2 5 1 1 3 3 3 4 5 6 6
7 6 6 4 4 3 4 5 5 6 6 7 3 3 3 3 2 4 5 6 8 9 7 6 6 5 4 5 4 4 3 1 2 3 4 3 3 1 4 3 3 6 6
9 8 6 4 3 4 3 4 4 7 7 7 5 4 6 5 4 4 6 7 7 7 7 6 6 5 4 5 6 6 6 4 3 3 3 3 3 3 1 4 4 4 4
7 7 5 5 3 1 2 3 6 6 7 6 7 7 7 5 4 5 4 3 4 4 6 6 5 5 5 5 5 5 7 5 5 4 5 4 3 3 3 2 3 3 4
7 6 6 4 3 2 2 3 5 6 5 6 7 6 6 7 6 5 3 4 3 3 5 5 6 4 5 6 6 6 7 7 4 5 5 5 5 3 2 2 2 2 3
5 6 6 5 4 3 1 2 5 3 5 5 6 6 6 4 4 4 4 3 3 3 4 5 6 6 6 6 6 5 5 6 6 8 6 5 5 6 5 2 3 3 3
7 7 5 5 4 4 3 2 2 2 4 5 5 5 5 5 5 5 5 3 3 4 5 5 6 6 6 6 6 5 6 6 6 6 6 5 5 5 5 3 3 3 3
6 5 5 5 4 3 3 4 3 3 3 4 3 4 4 5 4 4 5 5 4 4 5 5 6 6 6 6 5 5 6 7 5 6 7 6 5 6 5 6 5 5 3
5 4 6 6 6 5 6 4 4 4 3 3 3 4 4 5 4 4 4 5 5 5 6 6 6 6 6 6 5 6 7 8 7 7 8 8 8 6 5 4 4 3 2
7 7 6 6 7 7 6 6 5 5 5 4 4 4 4 5 5 4 4 5 5 5 5 5 6 6 6 7 6 8 7 7 8 7 8 8 6 6 5 3 6 5 4
5 4 6 8 7 6 6 6 6 6 5 5 5 5 4 5 4 4 4 5 5 5 5 5 6 6 6 7 7 6 7 7 7 7 7 7 6 6 5 4 5 5 6
8 7 7 7 7 6 7 7 6 6 6 6 5 5 5 4 4 4 5 5 5 5 5 5 5 6 7 6 7 7 7 6 6 7 8 8 7 8 8 7 7 7 7
7 8 8 8 8 8 8 6 6 7 6 6 6 5 5 5 5 5 5 5 5 5 5 5 5 6 7 6 5 6 6 4 6 6 6 9 9 13 11 6 8 8 7
7 7 4 5 7 8 8 9 10 9 9 7 6 6 6 5 5 5 5 6 5 5 5 7 6 6 7 12 10 8 6 6 5 6 5 6 9 11 13 13 12 11 9
7 7 6 5 7 5 8 10 11 10 9 8 7 7 6 6 5 6 6 7 7 6 6 6 7 6 7 11 10 9 7 5 5 6 7 7 7 9 10 12 11 12 13
7 5 4 5 6 2 4 8 9 10 10 8 8 7 7 7 7 7 8 7 6 6 7 5 6 5 6 11 8 7 6 5 6 7 8 8 8 10 10 9 9 10 9
4 3 2 3 3 3 5 8 8 9 9 8 8 8 8 8 7 8 8 8 8 6 7 6 5 6 6 10 9 4 6 6 6 7 7 8 7 12 14 8 9 9 8
4 4 2 1 2 1 6 8 8 9 8 9 9 8 8 8 8 7 7 6 7 7 6 7 5 5 5 9 10 6 5 6 4 5 6 11 9 12 13 8 8 6 9
6 3 3 4 4 4 6 6 6 7 8 9 9 7 6 7 8 7 5 6 7 8 7 7 5 4 4 5 9 10 6 4 3 3 3 5 10 11 12 11 7 9 8
6 6 5 5 4 5 7 8 8 8 8 9 9 9 8 7 6 8 6 6 8 8 7 5 4 2 3 6 7 8 9 7 4 3 3 4 9 10 11 9 13 14 9
6 5 7 6 5 5 6 9 7 9 8 9 8 8 7 7 7 7 7 6 6 6 5 4 3 2 2 1 6 6 7 9 5 3 4 6 8 10 9 13 14 9 6
7 5 7 7 7 5 5 5 10 9 10 10 9 8 8 7 6 4 4 5 4 4 4 4 3 2 1 1 2 2 4 7 5 5 4 5 7 10 8 4 8 6 5
5 6 8 8 8 7 6 8 10 10 10 9 9 8 6 7 6 4 4 4 2 5 4 2 3 3 1 3 8 6 4 4 5 4 3 3 2 3 4 4 4 4 5
6 7 6 6 7 7 7 8 10 11 11 10 8 7 7 6 5 5 3 9 10 11 10 11 6 2 5 2 2 5 3 5 7 4 2 2 2 2 3 3 3 2 4
Wind_Direction
133 87 67 53 61 38 36 22 15 2 9 2 4 44 77 54 58 51 38 35 40 39 36 43 27 33 53 43 14 317 310 296 4 301 299 297 282 296 278 272 314 352 356
160 123 90 59 51 51 31 22 17 6 2 328 301 106 99 74 72 63 47 33 43 34 39 35 29 29 47 38 22 17 331 319 20 20 13 314 328 345 310 1 40 40 18
168 150 109 78 61 49 28 27 12 351 354 343 194 107 98 92 51 31 50 32 41 35 28 31 31 35 26 36 22 7 15 321 337 27 204 306 261 329 333 38 60 27 19
124 134 138 116 104 69 42 36 18 8 13 4 36 88 114 113 74 77 70 46 38 39 30 32 34 35 28 40 27 24 21 19 17 329 11 19 32 254 315 347 15 24 33
132 137 138 127 87 64 45 43 42 29 15 20 37 61 89 93 98 79 72 54 45 35 27 28 28 35 31 37 42 30 31 25 39 10 352 13 34 34 351 299 327 9 6
117 120 128 134 121 92 79 59 61 42 23 32 38 62 86 93 85 73 72 47 34 28 24 23 28 30 36 38 39 41 43 38 48 41 40 39 29 25 19 349 330 323 307
137 147 159 162 154 131 83 74 61 54 34 41 44 52 74 82 89 92 92 73 42 25 19 22 28 26 34 41 41 51 48 37 43 34 45 43 42 26 15 30 319 318 314
152 180 191 183 176 182 117 88 72 70 57 63 55 48 48 58 73 86 90 80 73 60 37 36 34 32 38 45 45 47 55 48 49 48 42 48 37 44 36 30 355 322 315
191 200 200 203 198 203 191 128 141 80 59 67 69 68 79 78 76 70 70 77 71 82 56 47 43 32 38 45 54 56 52 56 53 48 42 49 39 35 29 27 32 13 332
209 212 219 218 218 220 201 185 153 134 104 84 93 87 76 75 83 90 83 76 70 69 65 54 47 40 36 37 58 58 52 61 47 51 49 43 40 33 16 27 17 29 355
242 230 230 221 215 212 202 186 166 142 139 136 110 105 95 87 75 75 80 80 74 71 63 54 48 42 42 27 46 66 57 66 61 51 45 39 40 33 18 16 17 17 1
232 225 226 223 220 215 199 194 178 172 173 158 134 117 105 96 93 90 90 83 79 72 72 66 63 53 41 36 38 59 52 58 63 61 58 44 42 26 1 355 17 357 338
261 244 232 229 231 219 201 199 188 184 171 154 143 134 118 110 111 104 93 84 82 77 66 66 68 62 53 51 45 53 61 63 70 72 56 40 28 38 0 5 11 3 345
244 246 258 245 235 211 205 196 190 175 164 158 150 138 138 131 119 106 93 85 79 79 64 48 69 77 66 57 61 59 57 60 59 76 66 50 23 17 359 17 8 2 345
263 244 245 244 234 219 209 180 173 168 162 156 150 148 136 130 124 111 97 88 84 80 70 57 35 69 66 63 60 69 76 62 65 47 67 49 27 7 5 14 4 2 352
281 296 294 265 235 218 204 185 178 170 161 158 154 144 139 136 131 119 108 96 84 78 68 65 44 47 67 61 63 70 63 55 57 54 49 48 27 358 9 12 9 17 359
279 289 288 292 301 257 189 184 168 151 153 150 147 148 141 132 126 119 112 106 98 87 80 59 54 50 52 56 63 72 66 55 64 49 36 31 20 0 10 10 15 16 10
260 266 285 309 315 333 127 129 144 150 148 146 148 145 140 135 131 126 120 118 114 109 104 78 62 57 60 57 53 71 84 64 73 51 41 28 15 7 18 7 14 10 7
211 223 225 252 296 144 133 130 135 138 140 146 145 144 145 142 140 140 140 139 132 134 123 117 96 66 51 47 61 74 76 67 54 55 38 15 17 8 22 17 11 359 3
195 212 141 59 126 117 127 132 145 145 146 147 148 146 146 147 148 145 149 137 140 137 119 106 83 62 34 45 48 56 70 61 55 40 29 1 23 16 23 28 17 348 2
179 132 149 183 188 157 135 134 141 159 147 137 136 135 137 142 140 134 142 134 130 119 110 112 92 72 27 30 48 52 60 70 68 55 23 353 19 22 23 28 25 13 17
176 172 170 184 180 164 147 153 159 147 140 140 142 140 140 141 141 144 137 132 134 125 124 125 119 84 32 71 45 53 78 76 86 56 25 3 23 33 19 24 26 24 22
184 173 171 169 182 178 161 158 159 145 140 140 139 141 136 136 138 140 147 132 130 132 140 150 140 113 70 23 66 62 81 60 77 63 31 39 34 39 27 22 26 30 17
195 165 168 173 178 182 163 146 155 149 146 146 144 141 138 134 126 121 128 132 141 126 146 145 145 142 174 158 150 110 75 71 72 59 20 50 52 47 47 9 17 19 14
175 172 186 181 181 165 158 153 153 152 150 148 148 147 143 139 128 114 126 137 102 152 145 143 138 141 230 248 166 150 132 145 138 89 30 15 3 13 12 5 358 3 6
166 183 181 170 169 162 156 158 160 161 153 153 156 156 145 131 125 127 125 143 155 149 145 148 157 253 231 161 112 102 79 90 138 54 61 1 360 8 345 344 330 321 354